RH
34 37 40 44 47 50 53 50 48 52 51 49 45 45 46 45 47 48 48 47 47 50 54 58 62 63 61 58 57 56 52 51 50 47 47 46 43 42 40 38 43 48 49 51 53 55 54 54 53 52 52 53 54 51 48 51 58 61 57 51 51 56 55 55 56 58 60 59 59 56 55 56 55 53 51 48 45 45 46 50 55 60 66 70 74 77 77 79 85 94 98 94 86 76 65 49 32
40 45 48 51 52 51 56 52 49 52 51 50 48 48 46 45 50 53 51 49 48 50 54 58 62 62 59 51 47 46 40 39 37 34 31 30 30 29 27 23 25 29 32 36 40 45 49 51 53 52 55 58 56 51 52 59 63 62 61 57 53 55 55 55 54 54 58 56 56 57 58 59 60 60 58 54 48 46 46 48 50 54 62 65 67 70 72 75 79 87 94 93 88 84 74 53 33
47 53 55 54 54 54 57 55 52 52 50 52 51 49 44 42 49 52 49 46 43 43 48 52 52 47 39 33 30 30 27 25 23 19 18 18 18 15 12 9 9 11 15 20 23 28 33 39 45 50 56 58 54 52 57 60 60 60 63 60 59 65 63 59 56 56 60 57 51 55 63 61 60 61 60 61 61 58 58 61 60 61 62 60 64 70 72 78 85 90 91 87 85 86 82 63 38
54 56 57 56 57 58 59 58 55 52 50 51 50 46 43 43 45 44 40 36 34 37 41 41 37 28 21 23 23 22 21 20 15 11 11 10 9 7 5 4 4 5 7 12 14 16 19 24 31 39 51 56 53 52 55 58 61 64 67 66 67 76 77 71 66 60 61 61 54 56 64 65 64 62 60 66 76 74 73 76 78 78 70 65 74 81 82 85 89 91 93 89 89 88 82 71 49
57 57 58 58 60 60 59 58 55 51 49 48 46 42 41 38 34 30 26 24 26 30 30 27 24 19 16 18 16 14 14 12 8 5 5 4 4 3 3 3 3 3 3 6 7 9 12 15 19 25 36 46 51 53 54 59 66 68 68 69 68 73 79 77 71 65 62 59 53 55 56 57 60 62 62 67 80 85 85 85 84 86 77 71 78 83 86 88 87 91 95 90 88 89 81 74 59
59 58 60 61 63 61 57 57 54 52 50 47 43 38 32 25 19 16 14 15 19 19 18 18 19 17 12 10 7 5 6 4 3 3 3 2 2 2 2 2 2 2 2 3 3 5 7 10 15 18 22 29 40 49 54 62 72 77 75 74 74 78 84 82 78 74 63 53 51 57 60 56 54 64 77 78 86 91 92 94 92 90 83 78 81 84 85 83 85 90 93 88 84 87 83 74 62
60 60 62 62 63 61 58 57 55 53 48 41 33 25 17 12 12 10 9 11 11 9 8 11 13 11 6 5 3 2 3 2 3 2 2 2 2 2 2 2 2 2 2 3 3 3 4 6 10 14 17 20 25 33 45 56 69 81 81 82 83 83 91 89 88 85 70 67 77 82 81 77 70 75 85 81 84 87 86 96 100 96 90 86 86 87 87 85 87 88 91 91 87 88 88 77 63
61 61 61 62 63 61 59 57 53 47 37 27 18 12 9 7 8 7 6 6 4 4 4 5 6 5 3 3 2 3 3 2 3 2 2 2 2 2 2 2 2 2 2 3 3 3 4 4 6 9 12 16 20 22 30 41 54 69 75 83 89 86 92 94 97 101 83 75 89 94 90 90 88 80 71 66 71 77 79 89 97 97 90 87 84 83 87 91 91 90 93 96 94 95 91 81 69
63 62 62 62 63 62 58 51 42 32 21 13 9 7 6 5 4 4 4 3 3 3 2 3 3 3 3 3 2 3 2 2 2 2 2 2 2 2 2 2 2 2 2 3 3 3 3 4 5 6 8 11 15 18 22 28 43 69 85 92 96 94 96 96 98 101 84 68 70 75 77 78 83 79 67 66 73 76 81 87 92 94 90 85 81 80 85 92 92 89 88 91 97 100 95 89 78
66 65 64 63 61 56 45 34 24 16 11 8 7 6 4 3 3 3 3 3 3 3 3 3 3 3 3 3 3 2 3 3 2 2 2 2 2 2 2 2 2 2 2 3 3 3 3 4 4 5 6 7 10 15 19 23 33 57 83 93 94 95 99 100 99 98 87 76 69 64 65 65 74 83 79 79 84 86 91 95 94 93 92 88 83 80 84 92 92 86 83 89 97 100 98 97 89
66 65 62 56 46 35 24 16 12 9 8 7 5 4 3 3 3 3 3 3 3 3 3 3 3 3 3 3 3 3 3 3 3 3 2 2 2 2 2 2 2 2 2 3 3 3 3 4 4 4 5 6 8 10 13 21 27 34 54 79 93 97 100 101 100 100 91 82 77 73 69 66 71 82 87 90 93 98 98 98 99 95 93 91 87 82 83 93 95 91 89 94 99 99 100 100 97
62 57 47 35 23 16 11 10 8 7 6 4 3 3 3 3 3 3 3 3 3 3 3 3 3 3 3 3 3 3 3 3 3 3 3 3 3 3 2 2 3 2 2 3 3 3 4 4 4 4 4 4 6 7 9 13 22 27 31 50 77 91 97 100 100 100 94 86 81 79 76 71 69 71 77 81 83 92 97 97 100 100 97 94 92 87 82 87 93 96 97 99 99 99 100 100 100
48 36 24 16 11 10 9 8 6 5 4 3 3 3 3 3 3 3 3 3 3 3 3 3 3 3 3 3 3 3 3 3 3 3 3 3 3 3 3 3 3 3 3 2 3 3 4 5 4 5 4 4 4 5 7 7 14 22 25 31 48 66 81 90 93 96 95 93 87 79 77 72 66 66 68 71 69 77 91 98 100 101 100 98 98 94 88 84 84 90 96 99 98 99 100 100 100
26 17 12 10 9 8 7 5 4 4 3 3 3 3 3 3 3 3 3 3 3 3 3 4 4 4 4 3 4 3 3 3 3 3 3 3 3 3 3 3 3 3 3 3 3 3 4 5 5 5 5 5 5 4 4 6 8 12 21 26 31 43 56 70 78 86 89 86 84 77 75 73 72 76 77 81 78 73 83 97 101 101 101 101 101 99 97 91 85 83 87 93 94 98 100 99 100
13 11 10 8 7 6 5 4 3 3 3 3 3 3 3 3 3 3 3 3 3 4 4 4 4 4 4 4 4 4 4 3 3 3 3 3 3 3 3 3 3 3 3 3 3 3 4 4 5 5 5 5 4 5 4 4 6 7 12 17 41 62 62 71 82 86 85 75 72 72 78 86 89 91 89 92 95 88 89 97 101 100 100 100 99 99 99 97 93 86 83 87 91 97 100 99 100
10 9 7 6 5 4 4 3 3 3 3 3 3 3 3 3 3 3 4 4 4 4 4 4 4 4 4 4 4 4 4 3 4 3 3 3 3 3 3 3 3 3 3 3 3 3 4 4 5 5 5 6 4 5 5 5 4 6 7 10 53 96 92 91 97 96 87 75 75 81 92 100 99 99 96 97 100 99 99 100 101 101 100 99 97 97 99 98 96 93 87 85 88 92 96 98 100
8 6 5 5 4 4 4 3 3 3 3 3 3 3 3 3 3 3 4 4 4 4 4 4 4 5 5 5 5 4 4 4 4 4 4 3 3 3 3 3 3 3 3 3 3 2 3 3 4 4 4 5 5 5 5 6 5 5 7 5 29 74 96 100 100 97 90 87 93 96 99 100 99 101 100 100 100 100 100 99 100 101 98 96 94 93 97 98 96 94 91 88 88 91 93 93 95
6 5 4 4 4 4 3 3 3 3 3 3 3 3 3 3 3 4 4 4 4 4 4 5 5 5 5 5 5 5 5 4 4 4 4 4 4 4 3 4 3 4 3 3 3 2 3 3 3 4 4 4 4 5 5 5 5 4 6 7 8 26 61 89 100 100 96 97 101 99 99 98 98 100 99 99 99 99 100 100 101 99 96 93 93 93 95 98 98 94 92 90 88 88 90 91 92
5 4 4 4 3 3 3 3 3 4 4 3 4 3 3 4 4 4 4 4 4 4 5 5 5 5 6 6 5 5 5 5 5 5 5 5 4 4 4 4 4 4 4 4 3 3 3 3 3 3 3 4 4 4 5 4 5 5 4 6 7 7 23 53 79 89 94 99 98 97 100 100 99 101 101 101 100 100 99 99 100 99 98 97 97 98 98 98 98 95 95 94 88 84 84 87 91
4 4 4 3 3 3 3 3 3 4 4 4 4 4 4 4 4 4 4 4 4 5 5 5 5 5 6 6 6 6 6 6 6 6 5 5 5 5 5 5 5 5 5 4 4 4 3 3 3 4 4 3 4 4 4 5 4 5 5 5 6 7 7 17 36 50 67 82 85 87 90 87 89 93 96 95 94 98 100 99 99 100 100 100 100 100 100 100 100 98 96 96 92 88 85 85 88
4 4 4 4 4 4 3 4 4 4 4 4 4 4 4 4 4 4 4 4 5 5 5 5 6 6 6 6 6 6 6 6 6 6 6 6 6 6 6 5 5 5 5 5 4 4 4 4 4 4 5 4 4 4 4 4 4 4 5 5 5 6 5 6 12 20 36 51 51 53 55 56 60 68 78 82 79 83 92 94 94 96 97 96 96 95 95 94 96 96 94 94 93 91 87 85 87
4 4 4 4 4 4 4 4 4 4 4 4 5 5 5 4 4 5 5 5 5 5 5 5 6 6 6 6 6 6 6 6 6 7 7 7 7 7 7 6 6 6 6 6 6 5 5 5 5 5 5 5 5 5 5 4 4 5 4 5 5 5 6 5 7 9 17 25 32 47 61 72 79 83 87 82 72 74 83 85 83 86 87 86 87 87 87 85 84 84 86 90 91 92 90 86 85
4 4 4 4 4 5 5 5 5 5 5 5 5 5 5 5 5 5 5 5 5 5 5 6 6 6 6 6 7 7 7 7 7 7 7 8 8 8 8 8 8 8 8 8 8 8 7 6 6 6 5 5 5 5 6 5 5 5 4 5 5 6 6 5 6 6 8 11 26 59 84 94 94 90 83 74 72 76 80 81 77 74 73 71 70 72 74 74 73 70 71 76 81 85 89 90 89
4 5 5 5 5 5 5 6 6 5 6 5 6 5 5 6 6 6 6 6 6 6 6 6 7 7 7 7 7 7 8 8 8 8 9 9 9 9 9 9 9 9 10 10 10 10 10 10 8 8 7 6 6 5 5 6 6 5 5 5 5 6 5 6 7 6 9 8 11 29 51 64 61 54 53 62 75 76 73 71 65 61 61 59 54 54 57 59 61 61 61 62 64 68 73 81 87
5 5 5 5 6 6 6 6 6 6 6 6 6 6 6 6 6 7 7 7 7 7 7 7 8 8 8 8 8 9 9 9 9 9 9 10 10 10 10 10 10 11 11 10 11 11 11 12 12 11 10 9 7 7 6 6 6 6 6 6 6 6 5 8 8 5 5 4 8 7 14 42 68 73 64 59 61 69 83 81 72 71 71 67 56 48 50 54 57 58 59 59 59 60 62 66 71
5 6 6 6 6 6 6 6 6 7 7 7 7 7 7 7 7 8 8 8 8 8 8 9 9 9 9 9 10 10 10 10 10 10 11 11 11 11 12 12 12 12 12 12 12 12 13 14 15 14 13 12 11 10 9 8 7 7 7 7 7 7 6 7 6 13 23 28 43 44 35 45 64 74 67 52 40 54 90 97 89 93 95 92 81 66 60 60 64 68 68 66 63 64 66 66 65
6 6 6 6 7 7 7 7 7 7 7 7 7 7 8 8 8 8 9 9 9 9 9 10 10 10 10 11 11 11 11 12 12 12 12 12 13 13 13 13 13 14 13 13 14 14 15 15 17 17 16 15 14 13 13 11 11 9 9 8 9 9 8 8 6 21 40 41 44 43 34 31 26 23 21 21 19 28 65 89 89 91 97 101 97 91 84 74 67 65 69 71 70 71 71 73 73
6 6 7 7 7 7 7 7 8 8 8 7 7 7 8 8 9 9 10 10 10 10 10 10 10 11 11 12 12 12 13 13 13 14 14 14 14 14 15 15 15 15 15 15 15 15 16 17 18 20 20 19 17 17 17 16 15 14 14 12 11 10 9 10 8 14 21 20 29 34 31 37 43 40 27 19 16 10 30 63 78 83 94 102 101 100 97 90 77 61 57 57 60 64 64 68 72
6 7 7 7 7 7 7 8 8 8 8 8 8 8 8 8 9 9 10 10 10 10 10 11 11 11 12 12 12 13 13 14 15 15 16 16 16 16 16 17 16 16 16 16 17 17 17 18 19 21 23 24 23 22 22 22 22 20 20 19 17 16 13 12 11 11 10 11 32 45 45 56 70 76 70 57 45 26 25 43 50 54 69 85 94 98 98 96 93 85 74 63 63 69 69 66 67
7 7 7 7 7 7 8 8 8 8 8 8 8 8 8 8 9 9 10 10 10 10 10 11 11 11 11 11 12 12 13 14 15 16 16 17 17 17 17 17 18 18 18 18 18 18 19 20 20 22 24 26 26 26 26 26 27 27 26 25 24 22 20 19 17 17 16 13 18 22 23 32 38 42 43 51 62 55 49 47 40 41 45 52 62 74 86 94 98 100 97 90 86 86 84 81 80
7 7 7 7 8 8 8 8 8 8 8 8 8 8 8 8 9 9 10 10 10 10 10 11 11 11 12 12 12 12 13 13 14 15 16 17 17 17 18 18 18 18 19 19 19 19 20 21 22 23 24 26 28 28 28 27 28 29 29 28 28 28 26 27 26 24 24 22 21 19 17 16 17 17 18 40 63 58 48 42 47 61 48 29 37 46 54 67 77 80 82 89 96 95 89 86 87
7 8 8 7 8 8 8 8 8 8 8 8 7 7 7 8 8 9 9 9 10 10 10 11 11 12 12 12 13 13 14 14 14 15 15 16 17 17 18 19 19 19 20 19 20 20 20 21 22 23 24 25 27 28 28 28 28 29 30 30 28 29 29 30 31 29 29 28 28 28 27 24 22 21 21 33 43 42 52 55 56 65 48 31 43 48 40 44 56 59 55 57 71 88 93 91 91
8 8 8 8 8 8 9 8 8 8 8 8 7 7 7 8 8 8 9 9 9 10 10 10 11 11 12 12 13 13 14 14 14 15 16 16 16 17 18 20 21 22 22 22 22 21 21 21 22 23 23 24 26 27 28 28 28 28 29 30 29 29 30 31 33 32 32 31 32 32 32 32 30 29 27 27 27 27 42 54 57 66 73 75 79 78 70 66 72 73 65 62 67 79 89 84 71
9 9 8 8 8 8 8 8 8 8 7 7 7 7 7 8 9 9 9 9 9 10 10 10 11 11 12 12 13 13 13 13 13 14 15 15 16 17 18 19 21 22 24 25 25 25 24 24 23 23 23 24 24 26 28 28 28 29 28 29 29 29 29 30 32 34 35 34 33 32 32 32 32 33 32 30 31 28 26 34 43 51 67 84 93 97 85 67 64 60 56 71 80 81 85 66 40
10 9 9 9 8 9 8 8 7 7 7 7 7 7 8 9 9 10 10 10 10 11 11 11 11 11 12 12 12 12 12 12 12 13 13 14 14 15 16 17 18 20 22 23 25 26 27 27 26 26 25 25 25 25 26 27 28 29 29 29 29 30 30 29 30 31 36 38 37 35 34 34 33 34 35 33 34 34 31 30 31 32 35 42 56 66 54 36 36 35 28 35 42 49 65 63 56
10 10 9 9 8 8 8 7 7 7 7 7 8 8 9 10 10 11 12 12 12 12 11 11 11 11 11 11 12 12 12 12 12 12 13 13 13 14 14 15 16 17 18 20 21 23 25 26 26 27 27 26 26 26 26 27 28 29 29 30 30 30 30 30 29 29 32 38 40 40 38 36 36 35 36 37 36 35 36 34 32 32 29 24 25 27 24 21 23 27 23 18 18 17 27 51 72
10 9 9 8 8 8 8 7 7 8 8 8 9 10 12 13 13 13 14 14 14 14 13 13 13 12 12 12 12 12 12 12 13 13 13 13 13 13 14 14 15 16 16 17 18 20 21 22 23 24 26 27 27 28 28 29 30 31 31 31 32 31 31 31 30 30 31 36 40 43 43 42 41 39 37 37 38 37 36 37 37 35 34 32 30 25 23 22 19 21 20 17 20 9 17 60 86
9 9 9 9 9 10 10 9 9 9 10 11 12 12 14 16 16 18 18 18 17 16 16 15 15 14 13 14 15 16 16 16 15 15 15 16 15 15 15 15 15 16 17 17 18 19 20 21 22 23 24 25 27 28 29 30 30 31 32 32 33 33 33 33 32 31 30 34 40 44 46 45 44 43 42 40 40 40 39 39 39 38 37 35 35 33 31 28 23 21 19 18 21 17 38 86 102
10 11 11 11 11 12 12 12 12 12 13 13 14 15 18 20 21 22 21 20 21 22 24 25 27 28 30 33 36 39 40 40 39 39 39 39 37 36 33 30 28 26 24 23 22 21 20 20 21 21 22 23 24 25 26 27 28 30 31 32 33 33 33 33 33 33 33 33 38 44 48 50 49 47 45 44 41 41 42 42 42 41 41 39 38 37 36 35 31 26 23 21 26 38 67 97 101
12 13 14 15 15 16 16 16 16 16 16 17 18 20 23 25 26 27 30 33 38 44 49 54 58 62 65 67 70 73 75 76 75 76 77 78 77 77 75 72 68 64 59 54 50 45 41 37 35 34 35 35 34 32 30 30 30 30 31 33 34 35 36 35 35 36 37 38 39 43 48 51 52 51 49 48 46 45 44 44 44 43 42 42 41 40 39 38 36 34 31 26 25 35 62 93 103
15 16 17 18 18 18 19 20 22 21 21 22 24 27 32 36 40 46 53 57 61 65 70 73 75 77 77 77 79 80 80 78 77 79 80 81 81 82 84 86 88 88 88 87 84 82 80 78 78 78 78 78 74 67 60 53 48 43 41 39 39 40 41 42 43 43 42 44 46 48 51 54 56 56 54 52 49 48 48 48 48 47 47 45 43 43 42 41 39 38 36 33 29 25 35 63 87
18 19 21 22 22 23 25 27 29 30 31 34 41 50 53 53 57 63 67 66 64 62 61 58 55 53 51 50 50 48 45 42 41 39 38 38 39 40 42 44 46 49 51 54 55 56 57 60 65 71 78 85 91 93 93 92 89 82 75 68 61 54 50 48 48 50 51 52 55 56 56 56 57 58 58 57 56 53 50 49 49 48 48 48 48 47 44 42 41 40 38 36 36 31 26 31 43
25 26 28 30 30 31 33 36 41 46 51 58 71 79 71 61 60 60 56 50 43 36 30 26 22 20 19 18 17 15 14 12 12 11 10 11 13 15 16 16 16 16 16 15 14 15 15 17 20 24 30 39 49 61 72 83 92 96 97 97 95 90 82 73 64 58 55 55 56 60 63 64 65 64 62 60 59 58 56 54 53 51 49 47 47 49 50 48 44 41 40 38 37 36 34 30 28
36 36 37 38 41 45 50 56 64 69 72 74 76 72 60 51 47 41 32 24 17 12 10 9 8 7 7 7 6 6 6 6 7 8 8 10 12 13 15 16 16 14 12 10 8 8 8 8 8 8 9 10 12 16 21 29 37 46 53 62 73 82 89 92 92 87 80 73 66 61 59 59 62 65 67 68 67 65 63 61 59 58 57 55 51 49 50 53 52 48 45 42 41 37 36 36 34
45 46 50 55 61 67 71 75 76 73 67 57 47 37 29 28 26 19 13 10 7 6 6 6 6 6 7 7 7 7 7 8 8 9 9 9 11 12 13 13 12 10 10 9 9 9 9 9 9 9 9 9 8 8 7 7 8 10 12 16 21 29 38 48 59 69 78 84 86 84 79 73 68 63 61 62 64 66 67 68 68 67 65 63 61 56 53 56 60 58 53 48 47 44 42 39 35
57 62 68 73 75 76 72 66 56 47 38 27 20 15 12 13 12 9 7 6 6 6 6 6 7 7 7 7 7 7 8 8 8 8 8 8 8 9 9 9 8 8 8 8 8 8 8 8 8 8 8 8 8 8 8 8 8 8 7 7 8 8 10 12 15 20 27 37 48 59 68 75 80 80 78 73 69 66 65 64 65 66 67 67 66 62 57 58 64 68 68 61 56 52 49 47 44
70 73 74 72 66 58 47 35 25 20 16 12 10 9 7 8 8 6 6 6 6 6 6 6 6 7 7 7 7 7 7 7 8 8 8 8 8 8 8 8 8 8 8 8 9 9 9 9 9 9 9 9 9 9 9 9 9 9 8 8 8 7 7 7 8 8 8 9 12 15 21 29 39 50 60 69 75 78 78 76 73 69 66 63 63 64 62 62 65 69 73 74 72 67 61 56 53
71 65 59 50 39 30 21 15 12 11 10 9 8 7 6 6 6 6 6 6 6 6 6 6 6 6 7 7 7 8 8 8 9 9 9 10 10 11 11 11 11 12 12 12 12 12 13 13 14 15 15 15 14 14 13 13 12 12 11 11 10 9 9 8 8 8 7 7 8 8 8 8 10 13 17 24 34 46 56 66 75 81 82 79 72 67 64 64 65 69 72 75 78 78 77 73 67
51 40 33 26 19 15 13 10 9 9 7 7 6 6 5 5 5 5 5 6 6 6 6 6 7 7 8 9 9 10 11 12 13 13 14 14 15 15 15 15 15 15 15 15 15 16 16 17 17 18 19 19 19 18 18 18 18 17 17 16 15 14 13 12 11 11 10 10 9 8 8 8 9 9 9 9 9 11 16 22 32 46 61 75 83 84 80 75 71 70 72 75 79 83 86 85 81
27 20 16 14 12 11 10 8 7 6 5 5 5 5 4 4 5 6 6 7 8 8 8 9 10 11 11 12 13 15 15 16 17 17 18 18 17 17 17 17 18 18 18 17 17 18 18 19 19 18 19 19 19 19 19 20 20 20 21 21 21 21 19 18 16 15 14 13 12 12 11 10 10 10 10 11 10 10 9 9 9 11 17 28 43 60 74 82 84 83 83 82 84 87 90 93 92
15 13 12 10 9 8 7 6 5 4 4 4 4 5 5 6 6 7 8 9 9 10 11 11 12 13 13 14 16 17 17 18 19 20 20 19 19 19 19 20 20 20 20 19 18 18 18 19 19 19 19 19 19 19 19 19 19 19 19 20 20 21 21 22 21 21 20 18 17 16 15 14 14 13 13 13 13 13 12 12 11 10 10 9 10 16 27 42 58 72 83 91 95 95 95 97 97
12 11 9 7 6 5 4 4 5 5 5 5 5 6 6 7 7 8 10 10 10 11 11 12 13 13 15 16 18 18 19 20 21 21 21 21 21 21 21 22 21 20 20 19 18 18 18 18 18 18 18 18 19 19 19 19 19 19 18 18 18 18 18 18 18 19 19 19 19 19 19 18 18 17 16 16 15 15 15 15 15 14 13 12 11 10 9 10 16 26 40 59 75 89 98 101 102
9 7 6 5 4 5 5 6 6 7 7 6 6 6 6 7 8 9 11 11 11 11 12 13 15 16 18 19 20 20 21 21 21 21 22 22 22 21 21 21 20 20 19 19 19 18 18 18 18 18 18 18 19 19 19 19 19 19 19 18 18 18 17 17 17 17 17 17 17 16 17 17 18 18 19 19 19 19 18 17 18 18 17 16 15 14 13 12 11 10 11 17 27 42 61 78 92
6 4 4 5 5 6 7 7 7 8 8 7 6 6 6 7 10 10 11 11 12 13 14 16 18 19 21 21 22 22 21 22 21 21 21 21 21 21 20 20 20 20 19 19 19 19 19 19 19 19 18 18 18 18 18 18 18 18 18 18 18 17 17 17 16 16 16 16 15 15 15 15 15 15 16 17 18 19 21 21 21 20 19 20 19 18 17 16 15 15 13 12 11 13 18 29 44
4 5 6 6 7 7 7 8 8 8 8 7 7 7 6 8 12 13 13 14 15 17 18 20 21 22 22 22 22 21 21 21 21 21 22 22 22 22 21 21 21 21 21 20 20 20 20 20 20 20 20 19 19 18 18 18 17 17 16 16 16 16 16 16 16 16 15 15 15 14 14 14 14 14 14 14 14 15 16 18 20 22 22 23 22 21 21 20 19 19 18 18 16 15 13 12 14
6 6 7 8 8 8 7 8 9 10 10 10 9 7 6 10 14 15 17 18 19 21 22 23 23 23 23 23 22 22 22 23 23 23 24 23 23 23 23 23 22 22 23 23 23 23 24 25 25 25 24 24 23 22 21 20 19 18 18 17 17 17 17 16 15 15 15 15 15 15 14 14 13 13 13 13 13 13 13 13 14 16 18 21 23 24 24 24 23 22 22 21 21 20 19 18 17
7 7 8 8 8 9 8 9 10 11 12 13 13 10 7 12 18 19 19 20 22 24 25 24 24 24 24 24 24 24 24 25 25 25 25 25 25 25 25 25 26 27 29 29 29 30 30 31 32 32 32 31 31 30 29 27 26 23 21 20 19 19 20 20 19 19 19 19 19 19 18 18 17 16 15 14 13 12 12 12 12 12 13 14 16 20 23 25 27 26 25 24 24 24 24 23 22
8 8 8 9 9 10 10 9 9 11 12 15 18 14 10 16 23 22 22 23 24 25 25 25 25 25 26 26 26 27 27 27 28 28 28 29 29 30 31 33 35 36 37 37 37 37 37 38 38 38 38 37 36 35 34 34 33 32 31 30 29 28 27 27 26 25 25 25 25 25 25 24 24 23 22 21 19 18 16 14 13 12 11 11 11 12 14 18 21 25 28 29 29 28 27 27 27
Wind_Speed
18 18 19 19 19 19 19 19 20 20 20 22 22 22 23 23 23 23 23 24 24 24 24 25 26 26 26 26 26 27 28 29 30 31 32 33 34 34 34 33 34 35 36 36 37 37 37 36 36 36 36 37 37 36 35 35 35 34 33 33 35 36 35 33 30 30 32 32 32 33 34 35 36 38 39 40 42 42 43 43 43 43 44 43 43 43 43 43 43 43 44 45 45 46 45 44 45
18 18 19 19 19 19 19 20 20 20 21 22 22 23 23 23 23 23 24 25 26 25 25 25 26 26 27 27 28 29 29 30 31 32 33 33 34 34 34 34 34 35 36 36 37 37 37 37 37 37 36 37 37 36 36 35 35 35 34 34 36 37 36 35 33 30 31 33 32 32 33 35 35 36 37 40 42 43 43 44 43 44 44 44 45 44 44 44 44 44 45 46 46 46 46 45 46
18 18 19 19 19 19 19 20 20 20 21 22 22 23 25 25 24 24 24 25 26 26 26 25 25 26 27 28 28 29 30 31 32 33 34 35 35 36 36 35 35 35 36 37 37 36 37 37 37 37 37 38 38 38 37 37 37 37 35 35 36 37 36 35 34 30 30 33 33 31 32 35 36 36 37 38 40 42 43 44 43 43 45 45 46 46 46 46 46 45 46 48 48 47 47 47 47
18 18 19 19 19 18 19 19 20 21 22 23 24 25 25 25 25 24 25 25 25 25 25 25 26 27 28 28 28 29 31 32 33 34 36 36 37 37 37 37 36 36 37 38 38 37 37 36 37 36 37 38 38 38 38 38 38 37 35 34 35 36 35 33 32 30 29 32 31 30 32 34 35 37 38 38 38 40 42 44 44 43 44 45 46 45 44 44 47 49 50 50 50 51 51 50 49
18 19 18 18 18 18 19 20 21 22 23 24 25 26 26 25 24 23 23 24 24 24 25 26 27 28 28 29 29 31 32 34 35 36 36 37 37 37 37 37 36 36 36 38 39 38 38 37 36 36 36 37 37 38 39 39 38 37 35 35 36 37 36 34 32 30 30 31 29 30 33 35 35 36 38 39 38 39 41 43 45 44 44 46 46 46 45 43 45 48 50 51 53 54 54 53 51
18 18 18 18 18 19 20 21 22 23 24 25 26 26 25 23 22 22 23 23 24 24 26 27 27 28 29 30 31 32 33 34 35 35 36 36 36 36 36 36 35 34 35 37 37 38 38 37 37 36 36 36 36 38 38 39 37 34 34 35 35 35 36 34 32 31 30 31 32 34 36 36 35 35 35 35 34 33 35 37 41 42 43 44 45 45 46 45 44 44 45 48 53 56 56 55 53
18 18 18 18 19 20 21 22 23 24 25 25 25 24 22 21 20 22 23 23 24 26 26 27 27 28 29 31 33 33 33 33 33 34 34 35 35 35 35 35 34 33 33 34 35 35 36 36 37 37 37 36 36 37 38 38 37 34 32 33 32 33 33 31 30 30 29 32 36 35 35 34 33 34 36 36 34 32 32 32 34 37 39 41 42 42 43 45 44 43 43 45 50 56 57 56 54
18 19 19 19 20 21 22 23 24 24 24 24 24 22 21 20 19 21 23 23 25 26 26 25 26 28 29 31 32 32 33 33 32 32 31 32 32 33 33 33 32 32 32 33 33 34 34 35 35 37 37 37 36 37 38 37 37 36 34 33 31 32 32 30 30 30 30 34 37 34 33 33 33 36 38 40 40 37 34 33 33 34 37 39 40 40 40 42 44 43 43 44 47 52 56 56 55
19 20 20 20 21 22 24 24 24 23 23 23 22 22 22 21 20 20 22 24 25 26 26 26 26 28 29 30 30 30 31 31 30 29 28 28 29 30 31 31 31 31 32 32 33 33 33 34 34 35 36 37 37 37 39 37 36 35 34 31 30 31 32 30 30 31 32 33 35 36 35 35 35 37 39 40 40 38 35 35 35 35 36 38 39 39 38 39 42 43 43 44 46 49 53 56 57
20 20 21 21 21 22 23 23 23 23 23 23 23 23 22 21 20 21 22 24 25 25 26 26 28 28 28 29 29 29 29 28 27 27 27 27 27 28 29 30 30 30 31 32 33 33 33 33 33 34 35 36 37 38 39 38 35 34 34 32 31 31 31 30 30 33 34 33 35 38 37 36 36 37 39 39 38 38 36 34 35 35 36 37 38 38 37 37 38 40 42 41 44 48 51 55 59
21 21 21 21 21 21 21 21 22 23 23 23 23 22 21 21 22 22 23 24 24 25 26 27 28 27 27 28 27 27 26 25 25 25 25 26 26 26 27 28 29 28 29 30 31 32 32 32 32 32 33 34 36 38 40 40 37 35 36 35 32 31 30 31 31 33 34 34 34 36 37 38 38 38 39 39 38 37 36 35 35 36 36 37 37 37 37 37 35 35 37 37 38 43 47 52 56
23 22 21 21 20 21 21 22 23 24 23 23 22 21 21 22 23 24 24 24 25 25 27 27 27 26 26 26 26 25 24 23 23 24 25 25 25 25 26 27 27 26 26 27 29 31 32 31 31 31 31 31 33 36 38 40 39 36 36 36 34 33 32 31 31 32 33 33 33 33 35 37 39 40 40 41 39 37 36 36 35 36 37 37 37 37 38 39 38 35 34 34 35 39 42 47 52
22 21 20 20 20 21 22 23 24 24 23 22 22 22 22 23 24 25 25 26 26 26 28 28 27 25 24 24 24 24 24 23 23 25 26 26 26 25 25 26 26 25 24 25 26 28 30 31 31 30 29 29 30 33 35 38 40 38 36 34 34 35 35 34 33 33 32 33 34 34 35 37 39 40 41 43 42 40 38 37 37 36 36 37 37 37 38 39 40 39 36 35 36 38 39 41 46
20 19 19 19 20 22 22 23 23 22 22 22 23 23 24 24 25 25 26 27 27 28 29 28 27 25 23 23 23 24 26 26 25 25 26 26 27 27 26 25 25 25 25 24 24 26 28 29 30 30 29 28 28 30 32 34 38 38 36 33 31 32 33 35 36 35 36 36 36 37 38 39 40 40 41 43 44 43 41 40 39 38 37 37 37 37 37 38 40 40 39 38 36 37 38 38 40
20 19 19 19 21 22 22 23 23 22 23 23 23 23 24 25 25 26 26 27 29 30 30 28 26 25 24 23 24 26 28 28 26 26 26 26 27 28 27 25 25 26 26 25 23 23 25 27 29 30 30 29 28 29 29 30 33 35 35 31 28 31 33 36 35 34 38 41 41 42 41 39 41 43 43 43 44 44 44 43 42 39 38 38 38 38 38 39 39 39 40 40 38 37 37 36 37
20 19 19 20 21 22 22 23 23 23 23 23 24 24 25 25 25 26 27 28 30 31 31 28 25 26 26 26 27 28 29 29 28 27 27 27 27 28 29 27 26 26 27 26 24 23 23 25 26 28 29 29 29 29 29 29 30 31 32 27 26 32 39 43 41 38 39 44 47 46 44 42 42 42 39 38 38 40 42 43 42 40 39 39 40 40 40 40 40 40 40 41 41 40 38 36 36
19 19 19 21 22 23 23 23 23 24 24 25 25 25 26 26 26 27 28 29 30 30 30 27 26 26 27 28 29 29 29 30 30 30 29 29 28 29 30 29 28 28 29 29 28 26 24 23 24 26 28 29 29 29 29 29 29 29 29 26 26 33 38 41 41 40 41 44 45 40 39 40 40 39 33 30 29 31 34 36 40 41 42 42 43 43 42 42 42 42 41 42 42 42 42 40 38
19 19 20 22 23 23 24 24 24 24 25 26 27 27 28 28 28 28 30 31 30 29 28 27 27 27 27 28 29 30 30 30 30 30 30 30 29 30 31 31 30 29 30 30 31 31 28 25 25 25 26 28 29 30 30 30 29 29 29 27 26 33 40 40 38 38 37 37 38 35 34 33 34 37 33 28 27 27 28 29 33 38 42 43 43 43 43 43 44 44 43 43 44 44 43 42 41
19 20 22 23 23 24 24 24 24 24 25 26 27 28 29 29 29 30 31 31 29 28 28 28 29 29 28 28 29 30 31 30 30 29 29 28 29 29 30 31 30 30 29 30 31 32 32 30 28 26 26 27 28 30 31 31 31 30 30 29 27 31 40 45 44 42 40 37 38 39 39 37 35 36 33 31 29 28 29 27 27 30 34 37 39 40 41 42 44 45 45 44 45 45 45 43 42
19 21 22 23 23 24 25 25 25 25 26 26 27 28 29 30 30 30 31 30 28 28 28 30 30 30 29 29 30 31 31 30 30 29 29 28 27 27 28 29 29 29 29 30 31 32 33 33 31 29 28 28 28 29 31 32 33 32 33 33 31 31 35 43 47 48 47 45 45 45 45 45 44 43 41 40 38 36 34 32 31 30 31 32 33 35 37 38 40 42 43 44 44 44 45 44 43
19 21 22 23 23 24 25 25 26 26 27 27 27 28 29 30 30 30 30 29 28 27 29 29 29 30 30 30 31 31 30 30 30 30 29 29 28 27 27 27 27 28 28 29 29 30 32 33 33 31 30 30 29 29 31 32 33 34 35 35 35 35 35 39 43 45 47 48 47 46 47 49 49 49 48 46 45 44 41 38 36 35 34 34 34 34 35 36 37 39 40 41 42 43 44 44 43
20 21 22 23 23 24 25 25 25 27 27 27 27 28 29 30 29 29 29 28 27 28 29 28 29 29 29 30 31 30 29 29 29 30 29 29 28 28 27 27 26 27 27 27 28 28 29 30 32 32 31 31 30 30 31 32 32 34 36 37 38 38 38 38 41 43 44 45 43 41 41 43 42 42 43 43 45 45 43 42 42 41 39 38 37 36 36 36 37 38 39 39 40 41 42 43 44
20 21 22 23 23 24 24 24 25 26 27 27 28 28 29 29 28 28 28 27 27 28 28 28 28 29 29 30 30 29 29 29 29 30 30 29 28 28 28 28 28 27 27 27 27 27 27 28 29 31 31 31 31 31 31 32 32 33 35 37 39 40 40 40 41 42 44 44 42 40 39 40 40 41 42 42 42 43 42 41 43 44 44 44 43 42 41 40 39 39 40 40 40 40 40 41 42
20 21 21 22 23 23 23 23 23 24 25 26 27 28 29 28 28 28 27 26 27 27 27 27 28 28 29 29 29 28 28 29 30 30 30 30 29 29 30 30 30 29 29 29 28 27 26 26 27 29 30 31 31 31 32 33 33 33 34 36 38 40 42 42 42 43 44 44 43 43 44 43 43 44 45 43 41 41 41 41 43 44 45 46 47 47 45 44 42 42 42 42 42 42 42 42 42
20 21 21 22 23 23 23 24 24 24 24 25 26 27 27 27 28 28 27 27 27 27 27 27 27 28 28 28 28 28 28 28 29 30 29 29 29 30 31 31 31 31 30 30 29 28 27 26 27 28 30 30 30 31 32 33 34 34 34 35 36 38 40 41 43 43 44 44 43 44 44 43 42 42 43 43 43 41 38 37 39 42 43 43 44 45 44 44 43 42 43 43 43 43 44 44 44
21 21 21 21 22 22 23 24 25 25 25 26 27 27 27 28 28 28 27 27 27 27 27 27 27 28 28 28 28 29 28 28 29 29 29 29 30 30 31 31 32 32 32 32 31 30 29 28 27 28 30 30 30 31 31 32 33 34 35 36 36 37 38 40 41 42 42 42 42 42 42 43 43 44 45 45 44 43 38 34 36 39 40 41 42 42 42 42 42 42 43 44 44 45 45 45 45
22 22 21 22 22 22 23 23 24 25 25 27 27 27 27 28 28 29 28 27 28 28 28 27 28 28 29 29 29 29 29 29 29 30 30 30 31 31 32 32 32 32 33 33 33 32 31 30 29 28 29 31 31 31 31 32 32 33 34 35 36 37 38 39 39 39 40 41 43 44 43 43 45 47 47 46 45 45 43 41 41 42 40 40 40 40 42 43 43 44 44 45 45 46 46 46 46
22 22 22 23 22 22 23 24 24 25 26 28 28 28 28 28 29 29 29 28 28 28 29 29 29 30 30 30 30 30 30 31 31 30 31 31 32 33 33 33 33 33 33 34 34 34 33 32 31 30 30 31 32 32 32 32 32 32 33 34 35 36 38 39 39 39 41 42 43 44 44 43 44 44 45 46 45 46 46 46 46 46 44 43 41 41 43 44 44 45 45 46 47 47 47 47 47
23 23 23 24 23 24 25 25 25 26 27 29 30 30 30 30 31 31 30 30 30 30 30 31 31 31 31 31 31 32 32 32 32 32 33 33 34 34 34 35 35 35 35 35 36 36 36 35 34 33 32 32 33 34 33 33 34 34 34 35 36 37 38 38 39 39 41 42 41 42 43 44 44 44 44 45 44 45 46 47 48 49 49 49 48 47 45 44 45 45 45 46 47 47 47 47 47
24 24 24 24 24 25 26 26 27 28 29 30 31 32 32 32 33 32 32 32 32 33 33 33 33 33 34 34 34 34 34 35 35 35 36 36 36 36 36 37 38 38 38 38 38 38 38 38 38 37 36 35 36 37 37 36 36 37 37 37 38 38 38 38 39 39 40 41 42 43 44 45 47 46 46 46 44 45 46 45 47 48 50 53 53 53 51 48 47 47 47 47 47 48 48 48 48
26 26 26 25 25 26 26 28 29 30 31 32 33 34 34 34 35 34 34 34 35 36 36 36 36 36 37 37 37 37 37 37 38 38 39 39 39 39 40 40 40 40 41 41 41 41 41 41 41 41 40 39 39 40 41 41 40 40 41 41 41 41 40 40 41 41 41 42 42 44 44 45 46 46 47 46 45 47 47 46 47 48 49 51 52 53 54 53 53 52 52 52 51 50 51 51 51
27 28 28 28 28 28 28 29 30 32 33 33 35 36 36 36 37 37 37 36 36 37 37 38 38 39 39 39 40 40 40 40 41 41 42 42 43 43 43 43 44 44 44 44 44 45 45 44 44 44 44 43 43 43 44 44 44 44 44 45 45 45 44 43 43 44 44 44 44 45 45 46 47 47 47 47 47 48 47 47 48 48 47 48 50 52 52 52 54 55 56 57 55 53 52 53 53
29 29 30 30 30 30 30 31 32 34 34 35 35 37 38 38 39 39 40 39 39 39 39 40 40 41 41 41 42 42 43 43 44 44 45 45 46 46 47 47 47 47 48 48 48 48 48 48 48 48 48 48 47 47 47 47 48 48 48 48 49 48 47 47 46 47 47 47 47 47 47 48 49 49 49 49 49 49 48 48 49 49 47 48 51 51 50 51 53 54 54 55 55 54 53 52 53
30 31 32 32 32 32 32 33 35 36 37 37 37 38 38 38 39 40 41 41 41 41 41 42 42 43 43 44 44 45 45 46 47 47 48 48 49 49 50 50 51 51 51 51 52 52 52 52 52 52 52 52 52 51 51 51 51 52 52 52 52 52 52 51 50 50 50 50 51 51 51 51 51 51 52 52 51 51 51 51 51 51 51 53 53 51 52 54 55 55 54 54 53 52 52 52 52
31 32 33 33 34 34 34 36 38 39 39 39 39 40 39 39 39 40 42 42 43 43 43 43 44 44 45 46 46 47 48 48 49 50 50 51 51 52 52 53 54 54 55 55 55 55 55 55 55 55 56 56 56 56 56 55 55 55 56 56 56 56 56 56 55 54 54 54 55 55 55 55 54 54 54 55 54 54 53 54 54 55 55 57 57 55 56 57 58 57 56 55 53 52 51 51 51
32 33 34 35 35 35 36 38 40 41 41 42 41 42 41 41 41 42 42 43 44 44 45 45 46 46 47 47 48 49 49 50 51 51 52 53 53 54 55 55 56 57 57 57 58 58 57 57 57 58 58 59 59 60 60 60 60 59 59 59 60 60 60 60 60 59 58 58 58 59 58 58 58 58 57 57 57 57 57 56 57 57 58 59 59 59 59 59 59 59 57 55 53 51 49 48 52
33 34 34 35 36 36 37 39 40 41 42 42 43 43 43 43 43 43 44 44 45 45 46 47 47 48 48 49 50 50 51 51 52 53 54 54 55 56 57 57 58 59 59 60 60 60 60 60 60 60 60 60 61 61 62 63 63 63 63 64 64 64 63 63 64 64 62 61 61 62 62 61 61 61 61 60 60 60 60 59 59 60 60 60 60 60 60 60 60 60 59 57 54 52 49 49 53
34 35 35 36 37 38 39 39 40 41 42 43 43 43 44 44 44 45 45 46 46 47 47 48 48 49 49 50 51 52 52 53 54 54 55 55 56 57 58 58 59 60 60 61 62 62 62 62 62 61 61 62 62 62 63 64 65 66 66 66 66 66 66 66 67 67 67 65 65 65 65 64 64 64 64 64 63 63 63 62 62 62 62 63 63 62 62 61 61 61 61 59 56 54 52 53 57
35 36 37 38 39 39 40 41 41 42 43 43 44 44 45 45 45 46 46 47 48 48 49 49 49 50 50 51 52 53 54 54 55 56 56 57 57 58 58 58 59 60 61 62 62 63 64 64 63 63 63 63 63 63 63 64 64 65 66 66 67 67 67 68 68 68 69 69 68 68 67 67 67 67 67 66 66 66 66 65 65 64 65 65 66 65 65 64 63 63 62 61 59 57 56 57 61
35 36 37 39 40 41 41 42 43 44 45 45 46 46 46 45 46 46 47 48 48 49 50 51 51 52 53 53 54 54 55 55 56 57 57 57 57 58 58 58 59 59 59 60 60 61 62 63 64 64 64 64 64 64 64 64 64 64 64 65 65 65 66 67 68 69 70 71 71 71 70 70 70 70 69 69 68 68 68 68 68 67 67 68 68 68 68 68 67 66 65 64 62 62 62 62 63
36 37 38 39 40 41 42 43 44 45 46 47 48 48 47 46 47 48 48 49 50 51 52 53 53 54 55 55 55 55 56 56 56 56 56 57 57 57 58 58 59 59 59 59 60 61 61 62 63 64 65 65 65 65 65 65 65 66 66 66 66 66 66 66 67 69 70 71 72 73 73 73 72 72 71 71 71 71 70 70 70 70 69 70 70 71 71 71 71 69 69 68 66 65 65 67 68
36 38 39 39 40 41 42 43 44 45 47 48 49 50 48 46 48 50 50 51 52 52 53 53 54 55 55 55 55 55 55 56 55 55 55 55 55 55 56 56 57 58 59 60 61 62 63 64 65 65 66 66 66 66 67 67 68 68 69 69 70 70 70 69 69 69 70 72 73 74 75 75 74 74 74 74 73 73 73 72 72 71 71 72 72 73 74 74 74 73 72 72 71 70 69 70 72
37 38 39 40 41 42 43 44 45 45 46 48 50 51 51 48 48 51 52 52 52 52 52 52 52 53 53 53 53 54 54 54 53 53 52 52 52 52 53 53 54 55 56 58 59 61 62 63 64 65 65 66 66 67 68 69 69 70 70 71 71 72 73 73 74 73 73 73 74 75 76 77 77 76 76 76 76 76 76 76 76 75 74 74 74 75 76 77 77 76 75 74 74 74 74 74 73
38 39 40 41 41 42 43 44 45 46 46 48 49 52 53 50 49 51 51 51 50 49 49 49 50 50 51 51 52 53 52 52 52 51 51 51 52 52 52 53 54 55 57 58 59 60 61 62 63 63 64 65 65 66 66 67 68 69 69 70 71 72 73 74 75 76 77 77 77 78 78 79 79 79 78 78 78 78 79 79 79 79 78 78 77 77 78 79 79 79 79 78 77 77 77 77 75
39 40 41 41 42 43 44 44 45 46 46 47 48 50 51 50 49 49 49 48 47 47 48 49 50 50 51 51 52 52 52 52 52 53 53 54 54 55 56 57 58 59 60 60 61 62 62 63 63 64 64 65 66 66 67 68 68 69 69 69 70 71 72 72 73 75 76 78 79 80 81 81 82 82 82 82 81 80 80 80 81 81 81 81 80 79 80 81 81 81 81 80 80 80 79 79 78
40 40 41 42 43 43 44 45 45 46 45 45 46 47 49 50 48 47 47 48 48 49 49 50 50 51 52 52 53 53 53 54 54 55 56 56 57 58 59 60 61 61 62 62 63 63 64 64 64 64 64 64 65 65 67 68 69 70 71 71 71 71 72 72 73 73 74 75 76 78 79 81 82 83 83 84 84 84 83 83 82 82 82 82 82 82 82 82 82 82 81 81 81 81 82 82 81
39 40 41 41 42 43 43 43 43 43 43 43 44 45 47 50 50 48 48 49 50 50 50 50 51 52 53 53 54 54 55 55 56 56 57 58 59 60 61 62 63 64 65 65 65 65 65 65 65 65 65 65 65 65 65 66 68 69 70 71 72 72 73 73 74 74 74 74 74 75 76 77 79 80 81 82 83 84 84 85 84 84 84 83 83 84 84 84 84 83 82 82 82 82 83 83 84
40 40 40 41 42 42 41 41 41 41 42 43 44 45 48 51 50 49 49 50 50 50 50 51 51 52 53 54 55 55 56 57 57 58 59 61 62 63 64 65 66 67 68 68 68 68 68 67 67 66 66 66 67 67 68 68 69 70 71 72 73 73 74 74 75 75 75 75 75 75 75 75 76 77 79 80 80 81 81 82 83 83 84 84 84 85 85 85 85 84 84 83 82 83 83 83 84
39 39 40 40 41 41 41 41 42 42 43 44 45 47 49 50 50 49 49 49 49 50 51 52 52 53 54 55 56 56 57 58 59 60 61 62 64 65 66 68 68 69 70 70 70 70 70 70 70 70 70 70 70 71 71 72 72 73 73 74 75 76 76 76 77 77 77 77 77 77 77 76 75 75 76 77 79 80 80 80 80 80 82 83 84 85 86 86 86 86 85 85 84 83 83 83 84
37 37 39 40 41 42 43 44 45 45 46 46 47 48 50 50 50 50 50 50 51 52 53 53 53 54 55 55 56 56 57 58 60 61 62 64 66 67 68 69 70 71 72 72 72 73 73 74 74 74 74 74 74 74 75 75 76 76 76 76 76 77 78 79 79 80 80 80 80 80 80 79 79 78 77 77 77 78 79 80 80 79 79 80 81 82 84 86 87 87 86 86 85 84 84 84 84
37 38 39 40 41 43 44 45 46 48 48 47 47 49 51 51 52 52 53 53 54 55 55 55 55 56 56 57 57 58 59 60 62 63 65 67 68 69 70 71 73 74 75 75 76 77 77 78 79 79 79 80 80 79 79 79 79 80 80 80 80 80 80 80 81 82 83 83 83 83 83 82 82 82 81 81 80 79 79 79 80 80 79 79 79 79 80 82 84 85 87 87 87 86 86 85 85
37 39 40 40 41 43 44 44 46 48 49 47 47 49 51 53 54 54 54 55 56 57 57 57 58 58 58 58 59 60 61 62 64 66 68 69 70 71 72 74 75 76 77 78 79 80 81 82 83 84 84 85 85 85 85 84 84 84 84 84 84 84 84 84 84 85 85 86 86 86 86 86 85 85 85 85 84 83 83 82 81 81 81 80 80 79 79 79 80 81 83 85 86 87 87 87 87
37 38 39 40 41 42 43 44 45 47 49 49 49 50 52 54 55 54 55 57 58 59 59 59 59 58 58 59 60 61 62 64 66 68 70 71 72 74 75 76 78 79 81 81 82 83 84 86 87 88 89 89 90 90 90 89 89 89 89 88 88 88 88 88 88 88 89 89 89 89 89 89 89 89 89 88 88 87 87 86 85 85 84 83 82 81 81 80 80 79 80 81 83 85 86 87 88
38 38 39 40 41 41 43 46 47 49 51 52 51 52 54 56 57 56 57 59 60 61 60 59 58 58 59 60 61 63 65 67 69 71 72 74 75 76 78 79 81 82 83 84 85 86 86 87 88 89 89 90 91 91 91 91 91 91 90 90 90 90 90 90 90 90 91 91 91 91 92 92 92 92 92 92 92 91 91 91 90 89 88 87 86 85 84 83 82 81 81 80 80 81 82 83 85
37 38 39 40 41 43 44 47 49 51 54 55 54 54 56 57 57 57 58 60 60 60 59 58 58 59 61 63 65 67 68 70 72 73 75 76 77 79 80 81 82 83 84 84 85 85 85 86 86 86 86 86 86 86 86 85 85 85 85 85 85 85 85 85 85 85 86 87 88 88 89 90 91 92 92 93 94 94 94 94 94 93 93 92 91 89 88 88 86 85 84 83 82 82 81 81 82
37 38 39 41 42 44 45 47 49 51 54 57 57 57 57 56 56 56 58 59 59 59 59 59 60 62 64 66 68 70 71 73 74 75 76 77 79 80 81 81 82 82 83 83 83 82 82 81 81 81 80 80 80 79 79 78 78 77 77 77 77 77 77 77 77 77 77 78 79 80 80 81 83 85 87 88 90 91 93 94 95 96 96 95 95 94 93 92 91 90 89 87 86 85 84 83 82
37 38 40 41 42 44 46 46 48 50 54 56 58 60 59 55 54 56 58 59 59 59 60 61 63 65 67 69 70 72 73 74 75 76 77 78 78 79 79 79 79 79 79 79 79 78 77 77 76 76 76 76 76 76 76 76 75 75 74 74 74 74 74 75 74 74 74 74 75 76 76 76 77 78 80 82 83 84 86 88 90 92 93 95 96 96 97 97 96 95 93 92 90 89 88 86 85
37 39 40 42 44 46 47 48 48 50 53 54 56 61 60 54 53 56 58 59 59 61 63 64 66 68 69 70 71 72 73 73 74 75 75 76 76 76 76 76 76 76 76 76 76 76 76 76 76 76 77 78 78 79 79 79 78 78 77 77 77 77 77 78 78 78 78 78 78 78 78 79 79 79 79 80 81 81 82 83 84 85 87 89 91 93 95 96 97 98 97 96 95 93 92 90 89
Wind_Direction
276 275 274 275 277 280 282 282 282 282 282 282 283 284 284 284 286 286 286 285 284 283 282 280 279 279 280 280 280 279 280 282 283 282 282 282 282 281 280 280 280 281 280 280 279 278 277 276 276 277 277 276 274 275 275 274 274 274 274 273 271 271 270 268 262 258 258 257 257 258 258 258 258 256 255 255 255 255 254 254 254 254 254 255 255 255 256 255 255 253 254 255 255 254 254 252 248
276 275 276 277 279 281 281 281 281 281 280 281 282 283 282 283 285 286 286 286 285 283 281 279 278 279 280 282 283 284 284 284 284 283 283 283 282 282 282 281 281 281 281 280 279 278 276 275 274 274 274 274 273 274 274 273 274 274 274 272 271 271 269 266 263 259 259 257 255 257 257 256 256 256 255 255 256 255 255 254 253 254 254 254 255 254 255 256 255 253 252 252 252 252 252 250 248
277 278 279 280 281 281 281 281 280 280 280 281 281 281 282 284 284 284 284 282 282 283 282 281 280 280 280 282 285 286 286 286 285 285 285 284 284 284 284 283 281 281 281 281 279 278 276 275 273 272 271 271 272 273 273 273 273 273 272 271 271 269 268 266 265 260 258 258 254 252 253 253 254 255 255 254 255 256 255 256 254 254 253 253 254 254 254 255 255 253 250 249 248 249 250 249 247
279 279 280 281 281 281 279 280 279 279 279 280 281 281 283 284 284 284 284 282 283 283 283 283 283 283 285 287 288 288 287 287 287 287 287 287 287 287 287 286 285 283 282 281 280 278 277 275 274 272 270 269 270 271 272 272 272 271 270 270 269 268 269 268 268 265 261 259 255 250 249 249 251 253 254 253 253 254 253 253 254 253 253 253 254 255 255 256 256 253 250 247 246 245 247 247 245
279 279 280 281 280 279 279 279 279 280 281 282 282 284 285 286 287 286 285 284 284 283 283 283 284 286 288 290 289 289 288 288 289 290 290 290 290 290 290 289 289 287 285 283 281 279 277 276 274 272 270 269 269 269 269 270 271 271 271 269 267 267 267 266 266 264 259 260 260 256 252 249 249 252 254 254 253 252 252 251 252 252 252 254 255 256 258 261 259 255 251 249 246 243 243 244 242
278 279 280 280 280 280 281 281 281 282 283 283 284 285 287 288 289 288 285 284 283 283 283 283 284 288 291 291 291 290 290 290 291 292 294 294 295 294 294 293 293 291 288 285 284 281 278 276 274 272 270 269 268 267 267 267 270 271 271 268 267 267 266 266 265 262 260 260 260 256 254 251 249 253 255 256 254 252 253 250 249 251 253 255 257 258 259 261 259 257 255 253 249 244 242 241 239
278 279 280 281 281 281 280 280 280 282 283 283 283 284 285 287 288 286 284 284 282 282 282 283 285 289 290 291 293 293 293 294 294 295 297 298 298 298 297 296 296 294 290 288 286 283 280 276 273 271 269 268 267 267 266 266 268 269 269 269 268 266 265 265 264 263 262 260 261 257 252 250 250 255 256 259 261 262 263 256 251 253 255 257 260 261 260 258 257 257 258 257 252 246 243 241 238
279 279 280 280 280 280 279 280 281 282 282 282 283 284 285 286 285 283 282 282 281 283 286 287 288 288 289 291 293 295 296 296 298 300 301 301 299 298 297 297 295 293 290 287 285 283 280 277 273 270 267 265 264 265 266 265 264 265 266 267 266 264 263 259 253 256 258 256 261 260 254 254 259 262 262 264 267 268 268 264 259 257 257 259 261 263 262 257 255 256 257 258 256 250 245 243 241
281 281 281 281 281 281 281 282 282 282 281 282 284 286 287 288 286 282 280 281 283 288 292 293 291 289 290 292 293 295 297 299 302 304 302 299 297 296 296 295 293 290 288 286 284 282 280 278 274 271 268 265 262 262 264 265 264 263 263 264 265 263 262 255 245 247 253 253 256 258 258 260 265 266 265 265 267 268 266 264 262 260 260 261 262 263 264 259 253 254 256 257 257 254 248 244 242
280 280 282 282 281 280 280 282 282 282 283 285 287 288 288 288 286 282 280 282 286 291 294 294 292 291 292 294 296 299 301 304 306 304 301 299 299 298 297 295 293 291 289 287 285 282 280 279 276 273 270 266 263 261 261 263 264 262 261 263 266 265 263 258 250 250 255 256 256 259 260 261 263 264 265 264 265 266 264 263 261 261 261 262 263 263 264 262 257 254 256 257 257 256 252 248 244
281 282 283 281 279 278 279 281 282 283 285 287 289 290 291 288 284 282 282 284 287 290 291 290 291 294 295 297 300 302 305 308 307 301 300 301 302 302 299 298 298 297 294 290 287 285 283 281 280 277 274 269 265 262 260 261 262 262 261 262 264 266 265 261 257 257 259 259 258 259 259 260 260 261 264 264 263 263 263 264 263 261 262 263 263 262 261 260 259 258 260 260 261 259 255 251 247
283 283 282 280 280 281 283 283 283 285 288 289 289 290 289 287 285 285 286 288 290 290 290 290 293 295 297 300 304 305 308 310 303 299 300 302 303 303 302 304 305 305 302 297 292 289 287 285 284 282 279 275 270 266 262 262 262 261 260 261 263 266 268 266 265 265 264 264 261 258 258 259 259 259 260 261 261 261 262 263 262 261 262 262 262 262 260 258 257 259 262 263 263 262 259 255 250
282 282 282 283 284 285 285 284 285 288 291 292 291 289 287 286 287 288 290 292 292 291 289 290 294 297 301 305 307 306 304 300 297 298 302 304 303 302 304 307 308 308 306 302 297 291 289 287 286 284 283 281 277 273 268 265 264 263 261 262 264 265 268 270 271 269 268 269 265 262 260 259 258 257 258 261 261 258 258 259 259 260 260 260 260 260 260 259 258 257 258 260 261 260 260 258 253
281 282 283 285 285 286 286 286 288 292 294 294 292 291 289 288 289 290 291 291 290 288 287 290 297 303 305 306 305 300 295 295 298 301 302 302 301 302 303 305 306 306 304 303 300 294 289 286 285 285 285 283 282 279 275 271 269 267 264 264 267 268 269 271 271 270 271 270 266 265 262 259 259 259 261 264 264 261 258 257 257 256 256 256 256 256 257 258 259 258 256 257 259 256 255 256 255
284 285 286 286 286 287 287 289 291 292 292 292 291 290 288 287 288 288 288 287 287 286 287 293 301 304 304 302 299 296 296 300 302 300 298 297 297 298 298 299 300 300 300 300 300 296 290 286 283 283 283 283 282 281 279 277 275 273 268 265 268 270 271 269 263 260 264 266 264 263 261 262 263 262 262 262 263 263 260 257 255 254 253 255 255 256 257 257 258 258 256 255 256 256 253 252 253
287 289 290 289 288 289 290 291 291 291 290 290 289 287 285 285 284 284 284 284 284 285 288 296 302 302 299 297 296 296 298 300 298 295 293 292 293 292 293 294 294 294 293 294 294 292 289 286 282 279 279 278 279 279 279 278 278 278 274 266 254 254 260 261 253 248 251 254 256 255 254 255 255 255 256 255 256 258 258 255 254 253 255 256 257 257 259 259 258 258 257 256 255 256 257 254 251
288 290 290 288 289 291 292 292 293 293 291 289 288 286 285 285 283 282 282 282 283 286 291 298 299 296 294 293 294 295 295 295 295 295 294 294 293 291 291 291 291 290 289 289 289 288 286 284 282 278 275 273 273 274 274 275 277 277 277 269 247 240 247 249 243 242 243 245 248 248 251 251 251 256 255 256 260 259 256 252 251 253 255 257 257 257 259 260 260 258 257 256 256 257 258 258 256
288 290 288 288 290 291 291 292 293 293 291 290 290 289 288 287 286 284 283 283 287 292 297 297 293 289 289 290 291 292 292 293 294 295 295 295 294 294 293 292 291 289 288 288 288 288 286 284 282 279 275 272 269 268 268 269 271 272 273 271 254 241 243 241 230 230 235 243 249 250 256 260 263 264 256 260 270 263 256 251 249 253 256 259 259 259 260 260 260 259 258 256 256 256 257 258 257
290 290 289 290 291 290 290 291 292 292 292 292 290 289 289 288 288 287 288 290 296 301 301 296 290 289 289 289 289 289 290 292 293 292 292 293 292 292 292 292 291 290 288 286 286 287 287 285 282 281 278 275 271 267 265 265 265 266 267 267 261 248 246 249 245 243 249 258 264 263 265 268 269 267 262 266 271 267 263 257 253 253 254 256 257 259 259 260 260 259 259 258 256 256 257 257 256
291 290 290 291 293 292 292 292 293 293 293 292 291 290 289 289 290 292 294 297 301 301 297 293 292 292 290 288 288 289 290 292 292 292 292 292 291 290 290 290 290 289 288 285 284 285 286 287 285 283 281 279 275 270 266 263 262 262 263 264 263 256 250 253 257 259 261 265 269 270 272 272 271 272 273 273 273 275 274 269 267 262 259 258 256 257 258 259 260 260 261 261 259 257 257 258 257
290 290 292 293 295 294 293 294 294 293 293 292 292 292 292 292 295 296 297 299 299 295 292 292 294 292 290 288 288 289 291 291 291 292 293 293 292 291 290 289 289 289 288 287 285 285 286 286 285 284 282 280 278 276 271 266 263 261 261 262 262 261 256 255 259 262 263 265 268 271 274 275 274 275 275 275 275 276 277 276 275 272 270 268 264 262 262 262 262 263 263 263 263 260 259 259 259
292 293 293 294 294 294 294 295 295 294 294 294 295 294 294 296 298 297 297 297 296 292 290 291 292 292 291 290 289 290 291 291 290 291 292 292 293 292 291 289 288 288 288 288 287 287 286 285 285 284 281 279 277 277 276 272 268 264 261 261 261 262 261 259 260 263 264 266 268 269 270 271 272 273 275 276 275 274 275 276 276 275 274 273 273 271 268 267 266 265 265 265 265 264 262 260 259
291 292 293 294 293 294 296 297 296 296 297 298 298 297 297 299 298 296 295 295 293 292 291 291 291 291 291 290 290 291 291 290 290 290 291 291 292 292 291 290 289 288 288 288 288 288 287 286 285 284 282 280 277 275 273 273 271 268 265 263 262 262 262 262 262 263 264 266 266 265 263 265 268 272 275 276 274 273 273 274 274 274 274 274 274 274 272 270 269 268 267 266 265 265 263 261 259
290 291 292 294 294 296 298 298 297 297 297 298 297 296 298 299 296 295 296 295 293 293 293 291 291 291 290 291 291 292 291 291 290 291 291 291 291 291 290 290 289 288 288 288 288 287 287 287 285 284 283 282 279 275 272 271 270 269 268 266 265 264 263 263 264 263 264 264 265 265 266 269 272 273 272 272 272 273 274 274 274 274 274 273 272 271 271 271 269 269 268 267 266 265 264 262 260
293 294 295 296 298 300 301 301 299 299 299 298 295 296 299 298 296 296 297 296 295 294 293 292 291 291 290 291 291 291 291 291 291 291 291 291 291 291 290 290 289 288 287 286 286 285 285 285 284 283 283 282 281 278 274 271 269 268 268 267 266 266 266 265 265 265 266 266 266 265 266 268 269 269 268 267 269 272 273 275 276 275 273 271 269 268 268 268 267 266 266 265 264 264 263 262 261
295 297 299 300 302 302 302 302 301 302 301 299 298 300 300 299 298 299 299 298 297 296 294 293 292 291 290 290 290 291 291 290 290 289 289 290 289 289 288 288 288 287 286 285 285 284 283 283 283 283 282 281 280 279 277 274 271 270 268 268 267 266 267 266 267 267 267 268 267 265 263 263 263 266 268 267 266 265 265 266 268 269 271 270 268 267 264 263 262 262 262 262 262 261 261 261 261
296 298 300 301 303 302 301 301 301 301 300 299 299 300 299 299 300 300 300 299 298 296 295 293 292 291 290 290 291 291 291 289 288 288 288 288 288 287 286 286 285 285 285 285 284 283 282 281 281 280 280 280 279 278 277 276 274 272 270 269 268 268 267 267 267 266 264 264 265 265 265 265 265 266 268 268 265 261 260 261 261 263 266 268 268 266 263 261 259 258 258 259 259 259 259 259 259
295 298 300 300 301 301 300 299 300 300 299 299 299 299 298 298 298 298 299 299 297 296 294 293 292 291 291 291 291 290 289 289 288 288 287 287 286 286 285 284 284 283 283 283 283 283 282 281 280 278 277 277 277 276 276 276 274 272 271 269 268 267 266 266 266 264 264 265 267 269 269 268 268 268 268 267 266 262 259 260 260 261 262 263 264 264 264 264 262 261 259 259 259 258 258 258 257
294 297 299 299 300 300 300 299 300 300 299 298 297 297 298 298 298 298 299 298 297 295 293 292 291 290 290 289 289 288 288 288 287 286 285 285 284 284 284 284 283 282 282 282 281 281 281 280 279 278 276 275 274 274 273 273 273 272 271 271 270 268 267 267 267 266 266 267 267 267 266 265 266 267 267 266 266 265 261 259 260 260 260 260 261 262 264 265 264 263 261 259 258 259 259 259 258
292 295 297 297 298 298 297 298 298 298 297 296 296 296 298 298 297 297 297 296 294 293 292 291 290 289 289 288 288 287 287 287 286 285 284 283 282 282 282 282 282 282 281 281 280 280 280 279 278 277 276 275 273 273 272 271 271 272 271 271 270 269 269 269 269 268 267 267 266 265 263 263 265 266 265 265 265 264 263 261 261 261 260 260 260 261 262 262 262 261 260 258 257 258 259 260 260
292 294 294 294 294 294 294 295 296 296 295 295 296 297 298 297 296 295 294 293 292 292 292 291 291 290 290 290 289 289 288 287 286 285 284 283 283 282 281 280 280 280 280 280 280 279 278 278 277 277 277 275 274 273 272 271 270 270 271 270 270 269 270 270 269 268 267 267 267 267 265 265 265 266 266 266 264 264 264 264 263 262 262 261 262 262 261 262 262 262 261 259 258 258 259 259 260
292 293 293 293 293 292 292 293 294 293 292 292 293 295 296 295 294 293 292 291 291 290 291 291 290 290 290 289 289 288 287 286 286 285 284 284 283 283 282 281 280 279 279 279 278 278 278 277 277 276 276 275 274 273 272 271 270 269 269 269 269 269 269 269 269 268 268 267 266 267 267 266 265 265 266 265 264 264 264 264 265 265 265 265 265 264 262 261 262 262 261 261 260 260 258 257 259
292 292 292 293 293 293 292 292 291 289 288 289 290 291 292 293 293 292 292 291 290 290 290 290 289 289 288 288 287 287 286 286 285 284 284 283 283 282 282 282 281 280 279 278 278 277 277 276 276 275 275 274 273 273 272 271 271 270 269 269 269 269 268 267 267 267 267 267 266 266 265 265 266 265 265 264 264 264 262 261 262 263 262 262 262 263 262 260 259 260 261 261 262 262 261 260 259
292 292 292 293 294 293 292 291 289 288 288 289 289 288 289 290 291 290 291 290 290 290 290 290 289 289 288 287 287 286 285 285 284 284 283 283 282 281 281 280 280 279 278 278 277 276 276 276 275 275 274 274 273 272 271 271 270 270 269 268 268 268 268 267 266 266 266 266 266 265 265 264 265 265 265 265 264 264 262 260 260 260 258 256 257 258 259 258 258 258 259 260 261 263 264 264 264
290 291 292 293 293 293 292 291 290 290 291 290 289 289 289 290 289 289 289 290 291 292 291 291 290 289 288 287 287 286 285 284 284 283 282 282 281 280 279 278 278 277 277 276 276 275 275 275 275 274 274 273 273 272 271 270 270 269 268 268 268 267 267 267 266 265 264 264 265 265 265 264 264 263 263 264 264 263 263 262 261 261 259 258 257 257 257 258 258 258 258 258 258 260 262 263 267
291 293 293 293 293 292 290 290 291 292 291 291 291 291 291 292 291 290 291 292 292 292 292 291 290 289 288 287 286 285 285 284 283 282 281 280 280 279 278 278 277 277 277 276 276 275 275 274 274 273 273 273 273 272 272 271 270 269 268 267 267 267 267 267 267 265 263 263 263 263 263 263 263 262 262 262 262 262 262 262 262 262 261 260 259 259 259 259 259 259 259 257 257 256 255 258 263
293 293 293 292 292 290 288 288 289 290 289 290 290 291 292 292 292 292 293 293 292 291 290 290 289 289 288 287 286 285 284 283 282 281 280 280 279 279 278 278 278 277 277 277 277 276 276 275 274 273 273 273 272 272 271 271 270 269 268 267 267 266 266 266 267 266 264 262 261 262 262 262 262 262 261 261 261 261 261 261 261 261 261 261 261 260 260 260 259 260 259 258 255 253 252 255 258
293 293 292 292 291 290 290 290 289 288 289 289 290 291 291 292 292 293 293 292 291 290 290 289 289 288 287 286 285 284 284 283 282 281 281 281 280 279 279 279 278 278 277 277 277 277 276 275 275 274 273 272 271 271 270 270 269 269 269 268 267 267 266 265 265 265 264 262 260 260 260 261 261 261 261 260 260 260 260 260 260 260 261 261 261 260 260 259 258 258 258 257 255 251 250 253 254
294 294 294 293 293 292 292 292 291 291 291 291 291 291 292 292 293 294 293 291 291 291 291 290 289 288 287 286 285 285 284 283 282 282 281 281 280 280 279 278 278 277 276 276 276 276 276 275 275 274 273 272 271 270 269 269 268 268 268 267 267 267 266 265 264 263 262 262 260 259 259 259 259 260 260 260 259 259 259 259 259 259 260 260 261 261 260 259 257 256 256 255 253 250 248 251 254
292 292 292 292 292 292 292 292 293 293 293 293 292 291 292 293 294 293 291 291 292 292 291 290 290 289 288 287 286 286 285 284 283 282 281 281 280 279 279 278 277 277 276 275 274 274 274 274 274 274 274 273 272 271 270 269 268 267 267 267 266 265 265 265 264 262 261 260 260 259 258 258 258 258 259 259 259 259 258 258 258 259 259 260 260 261 260 260 259 257 256 254 252 250 247 247 251
291 291 291 291 291 292 292 293 293 293 293 293 293 292 292 294 294 293 292 293 292 292 292 291 291 290 289 289 288 287 286 285 284 283 282 281 280 279 278 278 277 276 275 275 274 273 272 272 272 272 272 272 272 272 271 270 269 268 268 267 266 265 264 263 263 263 262 260 259 259 258 258 258 258 258 258 258 258 258 258 258 258 259 259 260 261 261 260 260 258 257 255 252 250 248 246 248
292 292 292 293 293 293 294 294 294 294 294 294 295 294 294 295 295 295 295 294 294 293 293 292 292 291 290 289 288 288 287 286 285 285 284 283 281 280 279 278 276 275 274 273 272 271 271 270 269 269 269 269 269 270 271 271 271 270 269 269 268 267 265 264 263 262 261 261 260 260 259 258 257 257 257 258 257 257 258 258 259 259 259 259 260 260 261 261 260 259 258 257 255 253 250 249 248
293 293 294 294 294 294 295 295 295 295 295 296 296 296 295 296 297 296 295 295 295 295 294 293 292 291 290 289 288 287 287 287 287 287 286 284 283 282 280 279 277 276 274 273 272 272 272 271 271 270 269 268 268 268 268 269 269 270 270 269 269 268 267 266 265 264 262 261 261 260 260 259 258 258 257 257 257 257 257 257 258 259 260 260 261 261 260 260 260 260 258 257 256 255 254 252 251
295 295 295 295 296 296 296 296 296 296 297 297 297 297 297 298 298 297 296 296 296 295 294 293 292 290 290 289 289 289 290 289 289 288 287 286 284 283 282 280 279 277 276 276 275 275 274 274 274 274 274 273 272 270 269 268 267 267 268 268 268 267 267 266 266 266 265 264 263 261 261 261 260 259 259 258 258 258 258 258 258 258 259 260 261 261 261 260 260 260 259 258 257 256 255 255 254
297 297 297 297 297 297 297 297 297 297 298 298 298 298 298 299 299 298 297 297 296 295 294 293 293 293 293 292 292 292 291 290 289 288 287 285 284 283 282 281 280 280 279 279 278 277 277 276 276 277 277 277 276 275 274 272 270 268 268 267 267 267 267 266 265 265 265 265 264 264 263 262 262 261 260 260 259 258 258 258 259 259 259 259 260 260 260 260 259 259 259 259 258 257 256 255 255
298 298 298 298 298 298 298 299 299 299 300 299 299 299 298 299 300 300 299 298 296 295 295 296 296 296 295 294 293 292 291 289 288 287 286 285 284 283 283 282 282 281 280 280 279 279 279 278 278 278 278 277 277 276 276 275 274 272 270 269 268 267 267 266 266 265 265 264 264 263 263 263 263 263 262 261 261 260 259 259 259 259 259 259 259 259 259 258 258 258 258 258 258 258 257 257 256
299 299 299 299 299 299 299 300 301 301 301 301 300 300 299 300 301 301 300 299 298 298 298 297 297 296 295 294 293 292 290 290 289 288 288 287 286 286 285 284 284 283 283 283 282 282 282 282 281 280 279 278 277 276 275 275 275 274 273 271 270 269 268 267 266 266 265 265 264 264 263 263 263 263 263 262 261 261 260 259 259 259 258 258 258 258 257 257 257 256 256 256 257 257 257 257 257
301 300 300 300 300 301 301 302 302 302 302 301 301 301 301 302 303 303 302 301 300 300 299 298 296 295 294 293 292 292 291 291 291 290 290 289 289 288 287 286 286 286 286 286 286 286 286 285 284 283 282 280 279 278 276 276 275 274 274 273 272 271 270 269 268 267 266 266 265 265 264 264 263 263 263 263 262 261 261 260 259 258 257 257 256 256 256 256 256 256 256 256 256 256 256 256 256
302 302 302 302 301 301 302 302 302 302 303 304 305 305 304 305 306 305 304 303 301 300 298 297 296 294 293 293 293 293 293 292 291 291 290 289 288 288 288 288 288 289 289 288 288 288 287 286 285 284 282 281 279 278 277 276 275 274 274 273 273 272 271 270 269 268 267 266 266 265 265 265 264 264 263 263 263 262 262 261 259 258 257 256 255 255 255 255 255 256 256 256 256 255 255 255 255
303 304 304 304 304 304 304 304 305 305 306 307 308 307 307 307 307 305 304 303 301 300 299 298 297 296 296 295 295 294 293 292 292 291 290 290 290 290 291 291 291 291 291 290 289 289 288 286 285 284 283 281 280 278 277 276 275 274 273 272 272 271 271 271 270 270 269 268 267 266 265 265 264 264 264 264 263 263 263 262 261 260 258 257 256 255 254 254 254 254 255 255 255 255 254 254 254
307 307 307 308 309 309 309 309 309 308 307 308 309 308 308 308 307 306 305 304 303 303 301 300 299 298 297 297 296 295 295 295 294 294 294 294 294 294 294 293 293 292 291 290 290 289 288 287 286 284 283 282 281 279 277 276 275 274 273 272 271 270 270 269 269 269 269 269 268 268 267 266 265 264 264 263 263 263 263 262 262 261 260 259 257 256 255 254 254 253 253 253 254 254 254 254 253
310 310 310 311 312 312 312 311 311 309 309 310 310 309 310 309 308 308 306 305 304 302 300 300 300 299 299 299 299 298 298 297 297 296 296 296 295 294 293 292 291 291 290 289 289 288 287 286 286 285 284 283 282 280 279 278 276 275 274 273 272 271 270 269 269 268 268 268 268 268 267 267 266 265 264 264 263 262 262 262 261 261 261 260 259 258 257 256 255 254 253 253 253 253 253 253 252
311 312 312 313 313 313 313 312 311 310 310 311 311 311 311 309 308 307 306 305 303 302 302 302 302 302 302 301 300 299 299 297 296 295 295 294 293 292 292 291 291 290 290 290 289 289 288 287 287 286 285 284 283 282 281 280 279 278 277 276 274 273 272 271 270 269 269 268 268 267 266 266 266 265 265 264 263 263 262 262 261 261 260 260 260 259 258 257 256 256 255 254 254 253 253 253 252
313 314 314 315 315 315 314 313 312 311 311 312 313 313 314 312 309 309 308 306 305 304 305 305 304 303 302 301 300 299 298 296 295 295 294 294 294 293 293 292 292 292 291 291 290 290 289 288 288 287 286 285 285 284 283 282 282 281 280 279 278 277 276 274 273 272 271 271 270 269 267 266 266 265 264 264 263 263 262 262 261 261 260 260 259 259 258 258 257 256 256 255 255 254 254 253 253
316 316 316 316 316 315 315 315 315 315 314 314 315 316 316 314 311 312 310 307 306 306 306 305 303 303 301 301 300 299 298 297 297 297 297 296 295 295 294 294 293 293 292 292 291 290 290 290 289 289 289 288 287 287 286 285 284 284 283 282 281 280 278 277 276 275 274 273 272 271 269 268 267 266 265 264 263 263 262 262 261 261 260 260 259 258 258 258 257 256 256 256 255 255 254 254 254
318 318 317 317 316 316 316 318 318 317 316 315 315 317 318 316 313 312 309 306 307 306 305 304 303 303 303 302 302 301 301 301 300 299 298 297 296 296 295 294 294 294 293 293 292 292 292 292 291 291 290 290 289 288 288 287 286 285 284 283 282 281 279 278 277 276 275 273 272 271 270 269 267 267 266 265 264 263 262 262 261 260 260 259 259 259 258 257 257 256 256 255 255 255 255 255 255
318 318 317 317 317 317 318 319 319 318 316 315 314 316 320 319 314 311 307 306 306 305 304 304 304 305 305 305 304 303 303 302 301 300 299 298 297 296 296 295 295 295 294 294 294 293 293 292 292 292 291 291 290 290 289 288 287 286 285 283 282 281 280 279 277 276 275 273 272 271 270 269 267 266 265 265 264 263 263 262 261 261 260 259 258 258 258 257 257 256 256 255 255 255 255 254 254
318 318 318 319 319 320 320 320 321 319 317 316 312 313 321 322 312 308 307 306 305 304 304 305 306 307 307 306 305 304 303 302 301 300 299 298 298 297 297 297 297 296 296 295 295 295 294 294 293 293 292 292 291 290 290 288 287 286 285 284 283 281 280 279 278 277 275 274 273 272 271 270 269 267 266 265 264 263 263 262 262 261 261 260 259 258 258 257 257 256 256 256 255 255 254 254 254